STARLINK-35178 (65610 NORAD) Tracking and Keplerian Element Data

This shows tracking and keplerian element data for the satellite.

Feedback or suggestion? Click here.




ElementValue
Catalog65610
NameSTARLINK-35178
Epoch Orbit583
Epoch Day354.25003472
Epoch Year2025
RAAN60.2556
Inclination97.6042
Eccentricity0.0001538
Argument of Perigee66.8995
Mean Anonmoly194.1927
Mean Motion15.30428021
Decay Rate-0.02609004
L11 65610U 25207U 25354.25003472 -.02609004 00000+0 -99167-1 0 9991
L22 65610 97.6042 60.2556 0001538 66.8995 194.1927 15.30428021 5837



Live tracking and technical data element details for STARLINK-35178 (NORAD 65610). STARLINK-35178 can be tracked NOW for your location showing map with azimuth and elevation plus other details from your city location.







IsCatalogInMostPopularTable: catalog: 65610, numindb: 6
Update: records affected: 1



GetName: 65610 STARLINK-35178

Hit Count: updated at: Tue, 10 Feb 2026 03:11:56 GMT